This demonstration page uses our WeatherBlox Daily Observations layout. Learn more.

Left ArrowRight Arrow

53.62937, 11.41316

Hourly Observations for February 24, 2018

Temp ( °F °C ) Dew Point ( °F °C ) Humidity (%) Winds ( mph kmh ) Pressure ( in mb ) Visibility ( mi km ) Precip ( " mm )
6:50 am 06:50 Mostly Cloudy 30 -1 27 -3 86 86 ENE 7 11 30.45 1031 30 48 N/A
7:20 am 07:20 Mostly Cloudy 32 0 27 -3 80 80 ENE 8 13 30.45 1031 30 48 N/A
7:50 am 07:50 Mostly Cloudy 32 0 25 -4 75 75 E 8 13 30.45 1031 30 48 N/A
8:20 am 08:20 Mostly Cloudy 32 0 23 -5 69 69 ENE 7 11 30.45 1031 30 48 N/A
8:50 am 08:50 Mostly Cloudy 32 0 23 -5 69 69 ENE 13 20 30.48 1032 30 48 N/A
9:20 am 09:20 Mostly Cloudy 32 0 23 -5 69 69 ENE 14 22 30.48 1032 30 48 N/A
9:50 am 09:50 Partly Cloudy 32 0 21 -6 64 64 E 13 20 30.48 1032 30 48 N/A
10:20 am 10:20 Partly Cloudy 34 1 18 -8 51 51 E 14 22 30.50 1033 30 48 N/A
10:50 am 10:50 Partly Cloudy 34 1 16 -9 48 48 E 16 26 30.50 1033 30 48 N/A
11:20 am 11:20 Mostly Sunny 34 1 16 -9 48 48 ENE 16 26 30.50 1033 30 48 N/A
11:50 am 11:50 Mostly Sunny 32 0 16 -9 51 51 ENE 16 26 30.50 1033 30 48 N/A
12:20 pm 12:20 Partly Cloudy 34 1 16 -9 48 48 ENE 15 24 30.50 1033 30 48 N/A
12:50 pm 12:50 Mostly Sunny 32 0 16 -9 51 51 ENE 14 22 30.50 1033 30 48 N/A
1:20 pm 13:20 Partly Cloudy 32 0 16 -9 51 51 E 14 22 30.50 1033 30 48 N/A
1:50 pm 13:50 Partly Cloudy 34 1 16 -9 48 48 E 12 19 30.50 1033 30 48 N/A
2:20 pm 14:20 Partly Cloudy with Light Freezing Rain 32 0 19 -7 60 60 E 14 22 30.50 1033 30 48 N/A
2:50 pm 14:50 Partly Cloudy 34 1 18 -8 51 51 ENE 14 22 30.50 1033 30 48 N/A
3:20 pm 15:20 Mostly Sunny 32 0 16 -9 51 51 ENE 15 24 30.50 1033 30 48 N/A
3:50 pm 15:50 Mostly Sunny 34 1 16 -9 48 48 E 10 17 30.50 1033 30 48 N/A
4:20 pm 16:20 Partly Cloudy 32 0 16 -9 51 51 ENE 15 24 30.50 1033 30 48 N/A
4:50 pm 16:50 Mostly Sunny 32 0 14 -10 47 47 ENE 13 20 30.50 1033 30 48 N/A
5:20 pm 17:20 Mostly Sunny 30 -1 16 -9 55 55 ENE 12 19 30.50 1033 30 48 N/A
5:50 pm 17:50 Mostly Clear 30 -1 18 -8 59 59 ENE 13 20 30.50 1033 30 48 N/A
6:20 pm 18:20 Mostly Clear 28 -2 18 -8 64 64 E 9 15 30.50 1033 30 48 N/A

Powered by AerisWeather